STARLINK-1495 (45761 NORAD) Tracking and Keplerian Element Data

This shows tracking and keplerian element data for the satellite.

Feedback or suggestion? Click here.




ElementValue
Catalog45761
NameSTARLINK-1495
Epoch Orbit182
Epoch Day191.91670139
Epoch Year2020
RAAN166.11
Inclination53.0013
Eccentricity0.0001049
Argument of Perigee89.8723
Mean Anonmoly40.4306
Mean Motion15.62749195
Decay Rate0.00028806
L11 45761U 20038AH 20191.91670139 .00028806 00000-0 31935-3 0 9993
L22 45761 53.0013 166.1100 0001049 89.8723 40.4306 15.62749195 1820

Live tracking and technical data element details for STARLINK-1495 (NORAD 45761). STARLINK-1495 can be tracked NOW for your location showing map with azimuth and elevation plus other details from your city location.

Track the satellite on the map from your city or location and see movement details for azimuth, elevation, latitude, longitude, range, height, and movement on the map or in text.







IsCatalogInMostPopularTable: catalog: 45761, numindb: 6
Update: records affected: 1



GetName: 45761 STARLINK-1495

Hit Count: updated at: Fri, 10 Jul 2020 15:23:14 GMT